TimeEDT,TemperatureF,Dew PointF,Humidity,Sea Level PressureIn,VisibilityMPH,Wind Direction,Wind SpeedMPH,Gust SpeedMPH,PrecipitationIn,Events,Conditions,WindDirDegrees,DateUTC
12:14 AM,42.4,32.0,67,30.21,10.0,NNW,17.3,31.1,N/A,,Mostly Cloudy,340,2012-10-12 04:14:00
12:34 AM,42.3,31.6,66,30.22,10.0,NNW,13.8,25.3,N/A,,Mostly Cloudy,340,2012-10-12 04:34:00
12:54 AM,42.1,32.0,67,30.23,10.0,NW,19.6,25.3,N/A,,Scattered Clouds,320,2012-10-12 04:54:00
1:14 AM,42.1,30.7,64,30.23,10.0,NNW,16.1,25.3,N/A,,Scattered Clouds,340,2012-10-12 05:14:00
1:35 AM,41.9,30.0,63,30.25,10.0,NNW,13.8,26.5,N/A,,Scattered Clouds,330,2012-10-12 05:35:00
1:54 AM,41.5,32.0,69,30.25,10.0,NNW,15.0,23.0,N/A,,Scattered Clouds,330,2012-10-12 05:54:00
2:14 AM,41.9,32.0,68,30.26,10.0,North,12.7,-,N/A,,Mostly Cloudy,350,2012-10-12 06:14:00
2:34 AM,41.9,31.6,67,30.27,10.0,NNW,15.0,26.5,N/A,,Overcast,340,2012-10-12 06:34:00
2:54 AM,42.1,29.7,61,30.28,10.0,North,12.7,25.3,N/A,,Overcast,350,2012-10-12 06:54:00
3:14 AM,42.1,29.1,60,30.28,10.0,North,16.1,21.9,N/A,,Overcast,350,2012-10-12 07:14:00
3:34 AM,41.9,31.1,66,30.29,10.0,NNW,13.8,21.9,N/A,,Overcast,330,2012-10-12 07:34:00
3:54 AM,42.1,27.3,56,30.29,10.0,NNW,13.8,20.7,N/A,,Mostly Cloudy,340,2012-10-12 07:54:00
4:14 AM,42.4,30.0,61,30.30,10.0,North,11.5,18.4,N/A,,Mostly Cloudy,360,2012-10-12 08:14:00
4:34 AM,41.2,32.4,71,30.31,10.0,North,10.4,18.4,N/A,Rain,Light Rain,10,2012-10-12 08:34:00
4:54 AM,41.9,28.6,59,30.32,10.0,North,10.4,21.9,N/A,,Overcast,350,2012-10-12 08:54:00
5:14 AM,41.9,26.8,55,30.33,10.0,North,11.5,-,N/A,,Mostly Cloudy,350,2012-10-12 09:14:00
5:34 AM,41.5,27.3,57,30.34,10.0,North,6.9,-,N/A,,Scattered Clouds,360,2012-10-12 09:34:00
5:54 AM,41.9,27.7,57,30.35,10.0,NNW,9.2,-,N/A,,Mostly Cloudy,340,2012-10-12 09:54:00
6:14 AM,42.3,25.2,51,30.35,10.0,North,8.1,-,N/A,,Overcast,350,2012-10-12 10:14:00
6:54 AM,41.4,30.0,64,30.37,10.0,NNW,9.2,17.3,N/A,,Mostly Cloudy,330,2012-10-12 10:54:00
7:14 AM,41.0,24.6,52,30.38,10.0,North,10.4,17.3,N/A,,Scattered Clouds,350,2012-10-12 11:14:00
7:34 AM,41.2,27.0,57,30.39,10.0,NNW,8.1,-,N/A,,Clear,340,2012-10-12 11:34:00
7:54 AM,41.5,28.0,59,30.39,10.0,North,6.9,-,N/A,,Mostly Cloudy,350,2012-10-12 11:54:00
8:14 AM,41.4,27.3,57,30.40,10.0,North,6.9,-,N/A,,Mostly Cloudy,360,2012-10-12 12:14:00
8:34 AM,40.1,30.6,69,30.41,10.0,Calm,Calm,-,N/A,,Scattered Clouds,0,2012-10-12 12:34:00
8:54 AM,37.9,32.2,80,30.42,10.0,SSE,4.6,-,N/A,,Scattered Clouds,150,2012-10-12 12:54:00
9:14 AM,38.5,33.1,81,30.43,10.0,SSE,4.6,-,N/A,,Scattered Clouds,160,2012-10-12 13:14:00
9:34 AM,40.1,33.4,77,30.44,10.0,South,4.6,-,N/A,,Overcast,180,2012-10-12 13:34:00
10:14 AM,41.4,32.0,69,30.44,10.0,Calm,Calm,-,N/A,,Scattered Clouds,0,2012-10-12 14:14:00
10:34 AM,43.0,32.7,67,30.45,10.0,ESE,5.8,-,N/A,,Clear,120,2012-10-12 14:34:00
10:54 AM,43.7,31.8,63,30.45,10.0,ESE,3.5,-,N/A,,Clear,120,2012-10-12 14:54:00
11:14 AM,45.0,30.6,57,30.45,10.0,Calm,Calm,-,N/A,,Scattered Clouds,0,2012-10-12 15:14:00
11:34 AM,45.1,29.1,54,30.45,10.0,NW,6.9,-,N/A,,Scattered Clouds,320,2012-10-12 15:34:00
11:54 AM,46.4,28.2,49,30.45,10.0,North,3.5,-,N/A,,Clear,10,2012-10-12 15:54:00
12:14 PM,46.0,26.6,47,30.46,10.0,North,4.6,-,N/A,,Clear,350,2012-10-12 16:14:00
12:34 PM,46.9,26.4,45,30.46,10.0,Calm,Calm,-,N/A,,Scattered Clouds,0,2012-10-12 16:34:00
12:54 PM,46.9,27.9,48,30.46,10.0,NW,4.6,-,N/A,,Scattered Clouds,320,2012-10-12 16:54:00
1:14 PM,45.9,27.3,48,30.46,10.0,NNW,5.8,-,N/A,,Overcast,340,2012-10-12 17:14:00
1:35 PM,45.9,27.9,49,30.45,10.0,WNW,3.5,-,N/A,,Overcast,300,2012-10-12 17:35:00
1:54 PM,46.0,29.3,52,30.45,10.0,Calm,Calm,-,N/A,,Overcast,0,2012-10-12 17:54:00
2:35 PM,45.5,27.9,50,30.44,10.0,WNW,6.9,-,N/A,,Mostly Cloudy,290,2012-10-12 18:35:00
2:54 PM,46.6,25.7,44,30.43,10.0,West,8.1,-,N/A,,Scattered Clouds,280,2012-10-12 18:54:00
3:14 PM,48.7,25.9,41,30.43,10.0,WNW,10.4,16.1,N/A,,Clear,290,2012-10-12 19:14:00
3:34 PM,48.9,26.6,42,30.42,10.0,West,11.5,-,N/A,,Scattered Clouds,260,2012-10-12 19:34:00
3:54 PM,48.2,28.8,47,30.42,10.0,West,10.4,-,N/A,,Scattered Clouds,280,2012-10-12 19:54:00
4:14 PM,48.4,28.2,46,30.41,10.0,West,8.1,-,N/A,,Clear,270,2012-10-12 20:14:00
4:34 PM,48.6,27.0,43,30.41,10.0,WSW,6.9,-,N/A,,Clear,250,2012-10-12 20:34:00
4:54 PM,48.4,27.7,45,30.41,10.0,West,9.2,-,N/A,,Clear,270,2012-10-12 20:54:00
5:14 PM,48.0,27.5,45,30.41,10.0,West,10.4,-,N/A,,Clear,260,2012-10-12 21:14:00
5:34 PM,47.5,28.4,48,30.41,10.0,WSW,6.9,-,N/A,,Clear,250,2012-10-12 21:34:00
6:14 PM,46.2,28.6,50,30.40,10.0,West,5.8,-,N/A,,Clear,280,2012-10-12 22:14:00
6:54 PM,43.7,28.6,55,30.40,10.0,Calm,Calm,-,N/A,,Clear,0,2012-10-12 22:54:00
7:15 PM,41.4,31.3,67,30.40,10.0,Calm,Calm,-,N/A,,Clear,0,2012-10-12 23:15:00
7:34 PM,38.5,31.6,76,30.39,10.0,Calm,Calm,-,N/A,,Clear,0,2012-10-12 23:34:00
7:54 PM,36.7,31.8,83,30.39,10.0,South,3.5,-,N/A,,Clear,190,2012-10-12 23:54:00
8:15 PM,36.3,31.8,84,30.39,10.0,South,3.5,-,N/A,,Clear,190,2012-10-13 00:15:00
8:34 PM,36.3,32.4,86,30.38,10.0,South,3.5,-,N/A,,Clear,190,2012-10-13 00:34:00
8:54 PM,36.7,32.2,84,30.38,10.0,South,3.5,-,N/A,,Clear,170,2012-10-13 00:54:00
9:14 PM,37.6,32.0,80,30.37,10.0,SSE,3.5,-,N/A,,Clear,160,2012-10-13 01:14:00
9:34 PM,37.4,32.0,81,30.37,10.0,SSE,4.6,-,N/A,,Clear,160,2012-10-13 01:34:00
9:54 PM,37.9,31.8,79,30.37,10.0,South,4.6,-,N/A,,Clear,170,2012-10-13 01:54:00
10:14 PM,38.5,31.8,77,30.37,10.0,SSE,4.6,-,N/A,,Clear,160,2012-10-13 02:14:00
10:35 PM,38.8,32.0,76,30.35,10.0,South,5.8,-,N/A,,Clear,170,2012-10-13 02:35:00
10:54 PM,39.2,32.0,75,30.35,10.0,SSE,4.6,-,N/A,,Clear,160,2012-10-13 02:54:00
11:14 PM,38.8,32.0,76,30.35,10.0,SSE,4.6,-,N/A,,Clear,160,2012-10-13 03:14:00
11:35 PM,39.2,32.0,75,30.35,10.0,SSE,5.8,-,N/A,,Clear,160,2012-10-13 03:35:00
11:54 PM,38.5,32.0,78,30.36,10.0,South,5.8,-,N/A,,Clear,170,2012-10-13 03:54:00